| time (UTC) | temp C | wind direction | speed KPH | gust KPH | rain 1hr cm | rain 24hr cm | rain mn cm | humidity % | barometer mb |
| 20260505035202 | 13 | 276 | 4.8 | 12.9 | 0.00 | 0.00 | 0.00 | 78 | 1010.6 |
| 20260505034703 | 13 | 267 | 8.0 | 12.9 | 0.00 | 0.00 | 0.00 | 77 | 1010.4 |
| 20260505034202 | 14 | 269 | 4.8 | 16.1 | 0.00 | 0.00 | 0.00 | 77 | 1010.4 |
| 20260505033702 | 14 | 281 | 9.7 | 16.1 | 0.00 | 0.00 | 0.00 | 76 | 1010.2 |
| 20260505033202 | 14 | 269 | 8.0 | 14.5 | 0.00 | 0.00 | 0.00 | 75 | 1010.3 |
| 20260505032702 | 14 | 261 | 4.8 | 14.5 | 0.00 | 0.00 | 0.00 | 75 | 1010.2 |
| 20260505032202 | 15 | 255 | 3.2 | 16.1 | 0.00 | 0.00 | 0.00 | 74 | 1010.1 |
| 20260505031202 | 15 | 246 | 16.1 | 16.1 | 0.00 | 0.00 | 0.00 | 73 | 1010.1 |
| 20260505030702 | 15 | 257 | 8.0 | 14.5 | 0.00 | 0.00 | 0.00 | 72 | 1010.0 |
| 20260505030202 | 16 | 217 | 4.8 | 19.3 | 0.00 | 0.00 | 0.00 | 71 | 1010.0 |
| 20260505025702 | 16 | 278 | 8.0 | 19.3 | 0.00 | 0.00 | 0.00 | 69 | 1009.9 |
| 20260505024702 | 16 | 275 | 11.3 | 17.7 | 0.00 | 0.00 | 0.00 | 68 | 1009.7 |
| 20260505024201 | 16 | 253 | 6.4 | 17.7 | 0.00 | 0.00 | 0.00 | 67 | 1009.7 |
| 20260505023702 | 17 | 276 | 4.8 | 16.1 | 0.00 | 0.00 | 0.00 | 67 | 1009.7 |
| 20260505022702 | 17 | 247 | 0.0 | 19.3 | 0.00 | 0.00 | 0.00 | 67 | 1009.9 |
| 20260505022201 | 17 | 262 | 8.0 | 19.3 | 0.00 | 0.00 | 0.00 | 66 | 1009.9 |
| 20260505021701 | 17 | 238 | 6.4 | 22.5 | 0.00 | 0.00 | 0.00 | 65 | 1009.9 |
| 20260505021201 | 17 | 278 | 8.0 | 22.5 | 0.00 | 0.00 | 0.00 | 65 | 1010.0 |
| 20260505020701 | 17 | 236 | 4.8 | 20.9 | 0.00 | 0.00 | 0.00 | 64 | 1010.0 |
| 20260505015701 | 18 | 263 | 4.8 | 25.7 | 0.00 | 0.00 | 0.00 | 64 | 1010.1 |
| 20260505015200 | 18 | 255 | 6.4 | 25.7 | 0.00 | 0.00 | 0.00 | 64 | 1010.1 |
| 20260505014200 | 18 | 311 | 9.7 | 24.1 | 0.00 | 0.00 | 0.00 | 63 | 1010.1 |
| 20260505013701 | 18 | 248 | 11.3 | 20.9 | 0.00 | 0.00 | 0.00 | 61 | 1010.1 |
| 20260505013200 | 18 | 266 | 6.4 | 22.5 | 0.00 | 0.00 | 0.00 | 62 | 1010.2 |
| 20260505012700 | 18 | 264 | 11.3 | 22.5 | 0.00 | 0.00 | 0.00 | 61 | 1010.2 |
| 20260505012200 | 19 | 290 | 6.4 | 24.1 | 0.00 | 0.00 | 0.00 | 61 | 1010.2 |
| 20260505011200 | 19 | 277 | 14.5 | 22.5 | 0.00 | 0.00 | 0.00 | 61 | 1010.3 |
| 20260505010700 | 19 | 344 | 14.5 | 27.4 | 0.00 | 0.00 | 0.00 | 61 | 1010.4 |
| 20260505010200 | 19 | 307 | 12.9 | 27.4 | 0.00 | 0.00 | 0.00 | 60 | 1010.4 |
| 20260505005700 | 19 | 318 | 12.9 | 25.7 | 0.00 | 0.00 | 0.00 | 60 | 1010.4 |
| 20260505005159 | 19 | 298 | 3.2 | 32.2 | 0.00 | 0.00 | 0.00 | 60 | 1010.4 |
| 20260505004659 | 19 | 151 | 4.8 | 32.2 | 0.00 | 0.00 | 0.00 | 61 | 1010.4 |
| 20260505004159 | 20 | 289 | 8.0 | 22.5 | 0.00 | 0.00 | 0.00 | 60 | 1010.4 |
| 20260505003700 | 20 | 273 | 12.9 | 24.1 | 0.00 | 0.00 | 0.00 | 61 | 1010.4 |
| 20260505003159 | 20 | 249 | 4.8 | 30.6 | 0.00 | 0.00 | 0.00 | 60 | 1010.7 |
| 20260505002700 | 20 | 281 | 8.0 | 30.6 | 0.00 | 0.00 | 0.00 | 59 | 1010.6 |
| 20260505002200 | 20 | 288 | 6.4 | 16.1 | 0.00 | 0.00 | 0.00 | 59 | 1010.6 |
| 20260505001659 | 20 | 258 | 6.4 | 17.7 | 0.00 | 0.00 | 0.00 | 59 | 1010.8 |
| 20260505001159 | 20 | 285 | 6.4 | 19.3 | 0.00 | 0.00 | 0.00 | 59 | 1010.7 |
| 20260505000659 | 20 | 234 | 6.4 | 19.3 | 0.00 | 0.00 | 0.00 | 59 | 1010.6 |
| 20260505000159 | 20 | 281 | 4.8 | 20.9 | 0.00 | 0.00 | 0.00 | 59 | 1010.6 |
| 20260504235659 | 20 | 293 | 8.0 | 20.9 | 0.00 | 0.00 | 0.00 | 59 | 1010.7 |
| 20260504235159 | 20 | 259 | 6.4 | 19.3 | 0.00 | 0.00 | 0.00 | 58 | 1010.6 |
| 20260504234659 | 20 | 246 | 4.8 | 17.7 | 0.00 | 0.00 | 0.00 | 58 | 1010.7 |
| 20260504234158 | 20 | 292 | 9.7 | 17.7 | 0.00 | 0.00 | 0.00 | 57 | 1010.7 |
| 20260504233658 | 20 | 322 | 12.9 | 19.3 | 0.00 | 0.00 | 0.00 | 57 | 1010.7 |
| 20260504233158 | 20 | 271 | 6.4 | 22.5 | 0.00 | 0.00 | 0.00 | 57 | 1010.7 |
| 20260504232659 | 20 | 259 | 11.3 | 22.5 | 0.00 | 0.00 | 0.00 | 56 | 1010.7 |
| 20260504232158 | 20 | 259 | 8.0 | 19.3 | 0.00 | 0.00 | 0.00 | 56 | 1010.6 |
| 20260504231658 | 20 | 304 | 8.0 | 19.3 | 0.00 | 0.00 | 0.00 | 57 | 1010.6 |
| 20260504231158 | 20 | 276 | 6.4 | 19.3 | 0.00 | 0.00 | 0.00 | 56 | 1010.7 |
| 20260504230658 | 19 | 271 | 9.7 | 19.3 | 0.00 | 0.00 | 0.00 | 57 | 1010.6 |
| 20260504230158 | 19 | 256 | 14.5 | 19.3 | 0.00 | 0.00 | 0.00 | 57 | 1010.7 |
| 20260504225657 | 19 | 320 | 6.4 | 17.7 | 0.00 | 0.00 | 0.00 | 59 | 1011.0 |
| 20260504225157 | 18 | 269 | 8.0 | 16.1 | 0.00 | 0.00 | 0.00 | 59 | 1010.8 |
| 20260504224657 | 18 | 292 | 9.7 | 20.9 | 0.00 | 0.00 | 0.00 | 60 | 1010.9 |
| 20260504224157 | 18 | 279 | 9.7 | 20.9 | 0.00 | 0.00 | 0.00 | 59 | 1010.9 |
| 20260504223658 | 18 | 284 | 6.4 | 19.3 | 0.00 | 0.00 | 0.00 | 59 | 1010.9 |
| 20260504223158 | 19 | 269 | 12.9 | 17.7 | 0.00 | 0.00 | 0.00 | 58 | 1011.0 |
| 20260504222657 | 19 | 288 | 9.7 | 17.7 | 0.00 | 0.00 | 0.00 | 58 | 1010.9 |
| 20260504222157 | 19 | 320 | 6.4 | 17.7 | 0.00 | 0.00 | 0.00 | 58 | 1011.0 |
| 20260504221657 | 20 | 264 | 8.0 | 14.5 | 0.00 | 0.00 | 0.00 | 57 | 1011.1 |
| 20260504221157 | 20 | 283 | 4.8 | 11.3 | 0.00 | 0.00 | 0.00 | 58 | 1011.1 |
| 20260504220657 | 20 | 344 | 3.2 | 11.3 | 0.00 | 0.00 | 0.00 | 58 | 1011.1 |
| 20260504220157 | 20 | 1 | 11.3 | 11.3 | 0.00 | 0.00 | 0.00 | 57 | 1011.1 |
| 20260504215656 | 20 | 290 | 8.0 | 9.7 | 0.00 | 0.00 | 0.00 | 58 | 1011.0 |
| 20260504215156 | 20 | 274 | 8.0 | 9.7 | 0.00 | 0.00 | 0.00 | 58 | 1011.0 |
| 20260504214656 | 19 | 292 | 6.4 | 12.9 | 0.00 | 0.00 | 0.00 | 59 | 1011.1 |
| 20260504214156 | 18 | 295 | 6.4 | 12.9 | 0.00 | 0.00 | 0.00 | 59 | 1011.2 |
| 20260504213156 | 18 | 274 | 6.4 | 14.5 | 0.00 | 0.00 | 0.00 | 60 | 1011.4 |
| 20260504212656 | 18 | 257 | 11.3 | 14.5 | 0.00 | 0.00 | 0.00 | 58 | 1011.5 |
| 20260504212156 | 20 | 279 | 9.7 | 14.5 | 0.00 | 0.00 | 0.00 | 58 | 1011.5 |
| 20260504211656 | 19 | 295 | 8.0 | 14.5 | 0.00 | 0.00 | 0.00 | 59 | 1011.5 |
| 20260504211156 | 19 | 298 | 4.8 | 16.1 | 0.00 | 0.00 | 0.00 | 59 | 1011.3 |
| 20260504210655 | 20 | 270 | 9.7 | 16.1 | 0.00 | 0.00 | 0.00 | 59 | 1011.4 |
| 20260504210156 | 21 | 261 | 11.3 | 12.9 | 0.00 | 0.00 | 0.00 | 55 | 1011.4 |
| 20260504205656 | 21 | 287 | 6.4 | 12.9 | 0.00 | 0.00 | 0.00 | 53 | 1011.6 |
| 20260504205156 | 21 | 309 | 4.8 | 11.3 | 0.00 | 0.00 | 0.00 | 50 | 1011.5 |
| 20260504204655 | 21 | 269 | 1.6 | 11.3 | 0.00 | 0.00 | 0.00 | 48 | 1011.5 |
| 20260504204155 | 21 | 255 | 3.2 | 9.7 | 0.00 | 0.00 | 0.00 | 49 | 1011.5 |
| 20260504203656 | 21 | 311 | 4.8 | 9.7 | 0.00 | 0.00 | 0.00 | 48 | 1011.5 |
| 20260504203155 | 21 | 329 | 3.2 | 9.7 | 0.00 | 0.00 | 0.00 | 50 | 1011.5 |
| 20260504202655 | 21 | 271 | 4.8 | 9.7 | 0.00 | 0.00 | 0.00 | 49 | 1011.5 |
| 20260504202155 | 21 | 75 | 3.2 | 9.7 | 0.00 | 0.00 | 0.00 | 50 | 1011.5 |
| 20260504201655 | 20 | 316 | 1.6 | 9.7 | 0.00 | 0.00 | 0.00 | 52 | 1011.4 |
| 20260504201155 | 20 | 281 | 3.2 | 11.3 | 0.00 | 0.00 | 0.00 | 52 | 1011.5 |
| 20260504200654 | 20 | 6 | 4.8 | 11.3 | 0.00 | 0.00 | 0.00 | 50 | 1011.5 |
| 20260504200155 | 20 | 316 | 4.8 | 11.3 | 0.00 | 0.00 | 0.00 | 54 | 1011.5 |
| 20260504195155 | 20 | 239 | 6.4 | 12.9 | 0.00 | 0.00 | 0.00 | 52 | 1011.5 |
| 20260504194154 | 20 | 330 | 4.8 | 11.3 | 0.00 | 0.00 | 0.00 | 54 | 1011.5 |
| 20260504193654 | 20 | 337 | 4.8 | 11.3 | 0.00 | 0.00 | 0.00 | 53 | 1011.5 |
| 20260504193154 | 20 | 272 | 8.0 | 11.3 | 0.00 | 0.00 | 0.00 | 55 | 1011.6 |
| 20260504191654 | 20 | 34 | 0.0 | 11.3 | 0.00 | 0.00 | 0.00 | 55 | 1011.6 |
| 20260504191154 | 20 | 340 | 4.8 | 11.3 | 0.00 | 0.00 | 0.00 | 54 | 1011.5 |
| 20260504190154 | 20 | 358 | 4.8 | 9.7 | 0.00 | 0.00 | 0.00 | 55 | 1011.5 |
| 20260504185653 | 20 | 302 | 6.4 | 9.7 | 0.00 | 0.00 | 0.00 | 56 | 1011.6 |
| 20260504185154 | 20 | 256 | 6.4 | 9.7 | 0.00 | 0.00 | 0.00 | 57 | 1011.6 |
| 20260504184653 | 20 | 306 | 4.8 | 6.4 | 0.00 | 0.00 | 0.00 | 58 | 1011.6 |
| 20260504182653 | 18 | 310 | 3.2 | 9.7 | 0.00 | 0.00 | 0.00 | 60 | 1011.7 |
| 20260504182153 | 18 | 281 | 3.2 | 9.7 | 0.00 | 0.00 | 0.00 | 60 | 1011.7 |
| 20260504181653 | 17 | 270 | 8.0 | 9.7 | 0.00 | 0.00 | 0.00 | 62 | 1011.8 |
| 20260504181153 | 17 | 247 | 4.8 | 11.3 | 0.00 | 0.00 | 0.00 | 62 | 1011.8 |
| 20260504180653 | 17 | 266 | 4.8 | 11.3 | 0.00 | 0.00 | 0.00 | 62 | 1011.9 |
| 20260504175653 | 17 | 308 | 6.4 | 9.7 | 0.00 | 0.00 | 0.00 | 62 | 1011.8 |
| 20260504175152 | 17 | 288 | 6.4 | 9.7 | 0.00 | 0.00 | 0.00 | 62 | 1011.7 |
| 20260504174652 | 17 | 271 | 3.2 | 11.3 | 0.00 | 0.00 | 0.00 | 62 | 1011.7 |
| 20260504174153 | 17 | 285 | 4.8 | 11.3 | 0.00 | 0.00 | 0.00 | 63 | 1011.7 |
| 20260504173652 | 17 | 279 | 4.8 | 9.7 | 0.00 | 0.00 | 0.00 | 64 | 1011.7 |
| 20260504173152 | 17 | 288 | 9.7 | 9.7 | 0.00 | 0.00 | 0.00 | 63 | 1011.7 |
| 20260504172652 | 17 | 296 | 0.0 | 9.7 | 0.00 | 0.00 | 0.00 | 64 | 1011.6 |
| 20260504172152 | 17 | 285 | 3.2 | 8.0 | 0.00 | 0.00 | 0.00 | 64 | 1011.6 |
| 20260504171152 | 17 | 266 | 0.0 | 8.0 | 0.00 | 0.00 | 0.00 | 65 | 1011.6 |
| 20260504170152 | 16 | 262 | 0.0 | 8.0 | 0.00 | 0.00 | 0.00 | 66 | 1011.7 |
| 20260504151150 | 16 | 260 | 1.6 | 6.4 | 0.00 | 0.00 | 0.00 | 66 | 1011.2 |
| 20260504150149 | 15 | 267 | 0.0 | 4.8 | 0.00 | 0.00 | 0.00 | 66 | 1011.1 |
| 20260504141148 | 16 | 267 | 0.0 | 0.0 | 0.00 | 0.00 | 0.00 | 66 | 1010.7 |
| 20260504140648 | 15 | 267 | 0.0 | 0.0 | 0.00 | 0.00 | 0.00 | 64 | 1010.8 |
| 20260504140148 | 15 | 267 | 0.0 | 0.0 | 0.00 | 0.00 | 0.00 | 63 | 1010.7 |
| 20260504130147 | 15 | 267 | 0.0 | 3.2 | 0.00 | 0.00 | 0.00 | 59 | 1010.3 |
| 20260504120146 | 15 | 347 | 0.0 | 0.0 | 0.00 | 0.00 | 0.00 | 62 | 1010.3 |
| 20260504110645 | 14 | 347 | 0.0 | 0.0 | 0.00 | 0.00 | 0.00 | 64 | 1010.4 |
| 20260504110145 | 14 | 347 | 0.0 | 0.0 | 0.00 | 0.00 | 0.00 | 64 | 1010.4 |
| 20260504100144 | 13 | 347 | 0.0 | 0.0 | 0.00 | 0.00 | 0.00 | 70 | 1010.4 |
| 20260504081642 | 15 | 307 | 0.0 | 1.6 | 0.00 | 0.00 | 0.00 | 64 | 1010.0 |
| 20260504081142 | 15 | 306 | 0.0 | 1.6 | 0.00 | 0.00 | 0.00 | 62 | 1010.0 |
| 20260504080142 | 15 | 307 | 0.0 | 0.0 | 0.00 | 0.00 | 0.00 | 61 | 1010.0 |
| 20260504070211 | 17 | 263 | 0.0 | 0.0 | 0.00 | 0.00 | 0.00 | 50 | 1010.2 |
| 20260504060140 | 17 | 243 | 3.2 | 8.0 | 0.00 | 0.00 | 0.00 | 52 | 1010.2 |
| 20260504050639 | 18 | 269 | 4.8 | 6.4 | 0.00 | 0.00 | 0.00 | 44 | 1010.5 |
| 20260504050139 | 19 | 259 | 3.2 | 6.4 | 0.00 | 0.00 | 0.00 | 45 | 1010.5 |
| 20260504045638 | 19 | 268 | 1.6 | 6.4 | 0.00 | 0.00 | 0.00 | 45 | 1010.4 |
| 20260504045139 | 19 | 259 | 3.2 | 6.4 | 0.00 | 0.00 | 0.00 | 45 | 1010.4 |
| 20260504044639 | 18 | 255 | 4.8 | 6.4 | 0.00 | 0.00 | 0.00 | 45 | 1010.3 |
| 20260504044138 | 18 | 253 | 1.6 | 6.4 | 0.00 | 0.00 | 0.00 | 47 | 1010.3 |
| 20260504043638 | 18 | 273 | 6.4 | 6.4 | 0.00 | 0.00 | 0.00 | 47 | 1010.4 |
| 20260504043138 | 19 | 252 | 3.2 | 6.4 | 0.00 | 0.00 | 0.00 | 47 | 1010.4 |
| 20260504042638 | 19 | 278 | 3.2 | 6.4 | 0.00 | 0.00 | 0.00 | 45 | 1010.3 |
| 20260504041638 | 19 | 259 | 0.0 | 0.0 | 0.00 | 0.00 | 0.00 | 45 | 1010.3 |
| 20260504041138 | 20 | 257 | 0.0 | 4.8 | 0.00 | 0.00 | 0.00 | 46 | 1010.4 |
| 20260504040637 | 20 | 257 | 0.0 | 8.0 | 0.00 | 0.00 | 0.00 | 45 | 1010.4 |
| 20260504040138 | 20 | 264 | 1.6 | 8.0 | 0.00 | 0.00 | 0.00 | 45 | 1010.4 |